Regional Weather Roundup
Issued by NWS Wakefield, VA

Home | Current Version | Previous Version | Graphics & Text | Print | Product List | Glossary On
Versions: 1 2 3 4 5 6 7 8 9 10 11 12 13 14 15 16 17 18 19 20 21 22 23 24 25 26 27
000
ASUS41 KAKQ 161715
RWRAKQ

REGIONAL WEATHER ROUNDUP
NATIONAL WEATHER SERVICE WAKEFIELD VA
1200 PM EST MON JAN 16 2017

Note: "fair" indicates few or no clouds below 12,000 feet with no
significant weather and/or obstructions to visibility. * = Denotes
station may not report precipitation (e.g., rain,snow,etc.),
thunder or fog.

VAZ042-051-052>054-056-161800-
NORTHERN VIRGINIA

CITY           SKY/WX    TMP DP  RH WIND       PRES   REMARKS
WASH NATIONAL  CLOUDY    42  29  59 S9        30.46F
DULLES         CLOUDY    42  30  62 S6        30.43F
FORT BELVOIR   CLOUDY    43  30  61 VRB3      30.44F
QUANTICO       CLOUDY    41  35  79 S8        30.46F
FREDERICKSBRG* CLOUDY    43  37  81 S5        30.45F
STAFFORD*      CLOUDY    41  36  81 CALM      30.49F
WARRENTON      CLOUDY    43  34  72 S6        30.43F
CULPEPER*      CLOUDY    43  39  87 S6        30.44F
MANASSAS*      CLOUDY   N/A N/A N/A S10       30.45F
LEESBURG*      CLOUDY    43  34  70 MISG      30.44F
WINCHESTER     CLOUDY    37  30  75 CALM      30.38F
FRONT ROYAL*   NOT AVBL
LURAY*         CLOUDY    43  36  75 CALM      30.37F
$$

VAZ048-049-060>072-079>083-161800-
CENTRAL AND SOUTH CENTRAL VIRGINIA

CITY           SKY/WX    TMP DP  RH WIND       PRES   REMARKS
RICHMOND       CLOUDY    41  35  79 CALM      30.45F
CHESTERFIELD*  CLOUDY    39  23  52 CALM      30.47F
PETERSBURG*    CLOUDY    39  34  81 CALM      30.46F
HANOVER        CLOUDY    42  35  76 CALM      30.46F
TAPPAHANNOCK*  PTSUNNY   43  28  55 CALM      30.46F
QUINTON*       CLOUDY    40  33  76 MISG      30.46F
CHARLOTTSVILLE CLOUDY    43  40  89 S6        30.41F
GORDONSVILLE*  CLOUDY    41  40  98 S5        30.43F
ORANGE*          N/A     41  41 100 S5        30.45F
LOUISA*        CLOUDY    45  43  93 S3        30.42F
BUMPASS*       CLOUDY    41  39  92 CALM      30.45F
FARMVILLE*     CLOUDY    42  41  96 S5        30.43F
CREWE*         CLOUDY    39  39 100 CALM      30.44F
FORT PICKETT*  CLOUDY    39  36  88 CALM      30.44F
CHASE CITY*    CLOUDY    41  40  95 CALM      30.43F
CLARKSVILLE*   CLOUDY    41  36  81 CALM      30.44F
SOUTH HILL*    CLOUDY    39  36  89 CALM      30.50F
LAWRENCEVILLE* CLOUDY    39  36  89 CALM      30.45F
EMPORIA*       CLOUDY    37  36  93 N3        30.48F
$$

VAZ088>098-161800-
SOUTHEAST VIRGINIA

CITY           SKY/WX    TMP DP  RH WIND       PRES   REMARKS
NORFOLK        CLOUDY    43  37  79 N6        30.45F
VIRGINIA BEACH CLOUDY    44  37  76 N5        30.44F
NORFOLK NAVAL  NOT AVBL
WEST POINT*    CLOUDY    42  33  70 S3        30.48F
SALUDA*        CLOUDY    42  33  72 CALM      30.46F
NEWPORT NEWS   LGT RAIN  43  31  62 CALM      30.46F
LANGLEY AFB    CLOUDY    43  36  75 CALM      30.45F
FORT EUSTIS    CLOUDY    43  32  65 CALM      30.43F
WILLIAMSBURG*  PTSUNNY   45  34  65 CALM      30.46F
HR EXEC AP*    CLOUDY    43  36  75 CALM      30.45F
FRANKLIN*      CLOUDY    42  36  81 E3        30.47F
US460-WAKEFLD  CLOUDY    42  36  79 CALM      30.46F
$$

VAZ020-022-025-037-045-161800-
WEST CENTRAL AND SOUTHWEST VIRGINIA

CITY           SKY/WX    TMP DP  RH WIND       PRES   REMARKS
STAUNTON*      CLOUDY    42  39  89 S7        30.39F
WAYNESBORO*    CLOUDY    40  39  95 SE7       30.38F
HOT SPRINGS VA SNOW      43  43 100 W10       30.30F VSB<1/4
LYNCHBURG      CLOUDY    42  38  85 CALM      30.43F
DANVILLE       CLOUDY    47  33  58 VRB3      30.42F
SOUTH BOSTON*  CLOUDY    45  32  62 CALM      30.44F
MARTINSVILLE   CLOUDY    47  38  71 CALM      30.43F
ROANOKE        CLOUDY    42  38  85 SE5       30.42F
BLACKSBURG     CLOUDY    41  41 100 SE3       30.39F FOG
DUBLIN*        FOG       44  44 100 CALM      30.38F VSB 1/4
MARION*        CLOUDY    50  49  96 E5        30.36F FOG
HILLSVILLE*    CLOUDY    45  45 100 CALM      30.34F FOG
RICHLANDS*     CLOUDY   N/A N/A N/A CALM      30.31F
WISE*          PTSUNNY   59  57  94 S5        30.31F
ABINGDON*      PTSUNNY   62  55  77 W6        30.31F
$$

MDZ021>025-VAZ099-100-161800-
SOUTHERN MARYLAND AND THE DELMARVA PENINSULA

CITY           SKY/WX    TMP DP  RH WIND       PRES   REMARKS
PATUXENT RIVER CLOUDY    39  32  76 SE5       30.46F
BAY BRIDGE APT CLOUDY    39  27  60 S3        30.47F
LEONARDTOWN    CLOUDY    41  32  70 CALM      30.46F
DOVER          CLOUDY    39  29  67 CALM      30.44F
GEORGETOWN     CLOUDY    42  27  55 CALM      30.45F
EASTON         CLOUDY    39  27  60 CALM      30.50F
CAMBRIDGE      CLOUDY    39  27  60 CALM      30.45F
SALISBURY      CLOUDY    41  27  57 CALM      30.45F
OCEAN CITY     CLOUDY    41  27  57 E6        30.46F
WALLOPS ISLAND CLOUDY    41  34  76 E6        30.47F
ACCOMACK*      CLOUDY    44  34  69 CALM      30.47S
$$

NCZ012>017-030>032-161800-
NORTH CENTRAL AND EASTERN NORTH CAROLINA

CITY           SKY/WX    TMP DP  RH WIND       PRES   REMARKS
ROANOKE RAPIDS CLOUDY    41  36  81 CALM      30.45F
RALEIGH        CLOUDY    48  23  37 CALM      30.43F
ELIZABETH CITY CLOUDY    44  40  85 N7        30.46F
AHOSKIE*         N/A     40  36  85 CALM      30.45F
EDENTON*       CLOUDY    45  39  79 CALM      30.45F
CURRITUCK*     CLOUDY    46  37  72 NE6       30.45F
KILL DEVIL HLS NOT AVBL
MANTEO         CLOUDY    46  39  76 N9        30.44S
CAPE HATTERAS  CLOUDY    50  44  80 N9        30.41F
TARBORO*       NOT AVBL
GOLDSBORO      CLOUDY    49  35  57 E5        30.41F
WASHINGTON     CLOUDY    46  38  73 NE6       30.44F
GREENVILLE     CLOUDY    46  36  66 NE3       30.44F
NEW BERN       CLOUDY    49  39  68 NE3       30.43F
WILMINGTON     CLOUDY    53  42  66 NE6       30.40F
$$

VAZ048-161800-
ELSEWHERE

CITY           SKY/WX    TMP DP  RH WIND       PRES   REMARKS
HARRISBURG PA  CLOUDY    33  24  69 SE3       30.44F
BALTIMORE      CLOUDY    39  27  62 CALM      30.45F
ANNAPOLIS      CLOUDY    38  29  70 E8        30.46F
ANDREWS AFB    CLOUDY    42  28  57 S10       30.43F
PHILADELPHIA   PTSUNNY   38  23  55 SW5       30.46F
HENDERSON NC   PTSUNNY   42  30  63 CALM      30.42F
GREENSBORO     CLOUDY    48  38  68 CALM      30.40F
ROCKY MOUNT    CLOUDY    46  34  62 E3        30.44F
$$

VAZ100-161800-
MARINE

STATION/POSITION TIME  TEMP    WIND        PRES    WAVE   SWELL
                       AIR SEA DIR/SP/G            HT/PER HT/PER
                 (UTC) (F)     (DEG/KT/KT) (MB)    (FT/S) (FT/S)
CAPE MAY NJ      1648   35 40  270/  5/  6 1031.2F
LEWES DE         1648          350/  3/  4 1031.4F
OCEAN-CITY-INLET 1648           90/  4/  6 1031.7F
WACHAPREAGUE VA  1648   42 44   40/  5/  7 1031.7F
THOMAS POINT MD  1700   36 38  170/  4/  4   N/A
GOOSES REEF MD   1700   38     170/  2/  4 1032.0
COVE POINT MD    1648   37     180/  6/  6 1032.0F
SOLOMONS ISLAND  1642   38 40  110/  5/  6   N/A
BISHOPS HEAD MD  1648   39 41   CALM  /  1 1031.9F
PINEY POINT MD   1648          170/  4/  5   N/A
POTOMAC MD       1700   39 40  100/  4/  4 1030.6    0
CAMBRIDGE MD     1648   38 38   50/  2/  3 1031.0F
LEWISETTA VA     1648   39 41   90/  5/  6 1031.2F
RAPPAHANNOCK LGT 1648          350/  4/  4 1032.2F
STINGRAY PT      1650   39      30/  2/  4 1032.2F
YORK RVR RNG VA  1648   41     360/  3/  3 1031.0F
YORKTOWN VA      1648   41 42   50/  2/  3 1031.3F
JAMESTOWN VA     1700   41 43   CALM  /  2   N/A     0
DOMINION TERM VA 1648   42     130/  1/  2 1031.5F
KIPTOPEKE VA     1648           20/  3/  5   N/A
CHES BAY BRIDGE  1648   41 42  360/  5/  6 1031.3F
CAPE HENRY VA    1648   42      10/  7/  7   N/A
WILLOUBY STN VA  1648   41      30/  5/  5 1032.2F
S CRANEY ISL VA  1648   42      30/  4/  4 1031.2F
CAPE HENRY BUOY  1642      48                N/A     2/ 8
OFFSHORE WE BUOY 1651      49                N/A     3/ 8   2/11
64NM E OF VA BCH 1650   51 58   30/ 10/ 12 1030.0F   3/ 7   3/ 7
DUCK PIER NC     1648   45 44  360/  8/  9 1030.3F
44100 DUCK FRF   1635      46                N/A     3/10   2/11
44056 DUCK FRF   1630      45                N/A     3/ 6
OREGON INLET NC  1636   47 49   10/  7/ 10 1030.3F
HATTERAS NC      1648           10/ 13/ 16 1029.4F
DIAMOND SHLS NC  1650   57 74   10/ 17/ 21 1028.8F   4/ 8   2/ 8
CAPE LOOKOUT NC  1600   50      20/ 11/ 14 1029.9R
$$




USA.gov is the U.S. government's official web portal to all federal, state and local government web resources and services.